Location: Perugia
(43.1330°N, 12.3670°E)
Time: 05:57:44
(UTC+01:00)

ISS - Pass Details

Date: 02 February 2021
Orbit: 417 x 422 km, 51.6° (Epoch: 05 March)

Event Time Altitude Azimuth Distance (km) Brightness Sun altitude
Rises 18:06:31 0° 305° (NW) 2,373 0.7 -8.1°
Reaches altitude 10° 18:08:46 10° 315° (NW) 1,508 -0.5 -8.5°
Maximum altitude 18:11:51 32° 21° (NNE) 756 -2.8 -9.1°
Enters shadow 18:14:21 14° 81° (E) 1,303 -1.9 -9.5°
